Weather History for Pecos, TX

Change the Weather History Date:

Monday, January 6, 2014

  Actual Average Record
Temperature  
Mean Temperature 26 °F -  
Max Temperature 34 °F 58 °F 82 °F (1916)
Min Temperature 18 °F 27 °F 3 °F (1972)
Degree Days  
Heating Degree Days 39    
Moisture  
Dew Point 9 °F    
Average Humidity 51    
Maximum Humidity 68    
Minimum Humidity 34    
Precipitation  
Precipitation 0.00 in - - ()
Sea Level Pressure  
Sea Level Pressure 30.51 in    
Wind  
Wind Speed 8 mph (ENE)    
Max Wind Speed 18 mph    
Max Gust Speed 22 mph    
Visibility 10 miles    
Events      
Averages and records for this station are not official NWS values.
T = Trace of Precipitation, MM = Missing Value Source: NWS Daily Summary

Daily Weather History Graph

Daily Weather History Graph

Search for Another Location

Airport:

Trip Planner

Search our weather history database for the weather conditions in past years. The results will help you decide how hot, cold, wet, or windy it might be!

Date:

Astronomy

Jan. 06, 2014 Rise Set
Actual Time 7:53 AM CST 6:06 PM CST
Civil Twilight 7:27 AM CST 6:32 PM CST
Nautical Twilight 6:57 AM CST 7:02 PM CST
Astronomical Twilight 6:27 AM CST 7:32 PM CST
Moon 11:34 AM CST (1/6) No Moon Set
Length of Visible Light 11h 05m
Length of Day
10h 12m
Waxing Crescent, 35% of the Moon is Illuminated
Jan 6
Waxing Crescent
Jan 7
First Quarter
Jan 15
Full
Jan 23
Last Quarter
Jan 30
New

Hourly Weather History & Observations

Time (CST) Temp. Windchill Dew Point Humidity Pressure Visibility Wind Dir Wind Speed Gust Speed Precip Events Conditions
12:15 AM 27.7 °F 23.8 °F 16.7 °F 63% 30.38 in 10.0 mi ENE 3.5 mph - N/A   Clear
12:35 AM 26.6 °F 19.1 °F 17.2 °F 68% 30.39 in 10.0 mi NE 6.9 mph - N/A   Clear
12:55 AM 27.5 °F 19.3 °F 18.1 °F 68% 30.39 in 10.0 mi NE 8.1 mph - N/A   Clear
1:15 AM 28.2 °F 15.5 °F 16.5 °F 62% 30.40 in 10.0 mi East 18.4 mph 21.9 mph N/A   Clear
1:35 AM 28.4 °F 18.0 °F 15.3 °F 58% 30.40 in 10.0 mi East 12.7 mph - N/A   Clear
1:55 AM 27.7 °F 17.1 °F 13.1 °F 54% 30.42 in 10.0 mi ENE 12.7 mph - N/A   Clear
2:15 AM 27.0 °F 15.6 °F 12.7 °F 55% 30.43 in 10.0 mi ENE 13.8 mph 18.4 mph N/A   Clear
2:35 AM 26.6 °F 16.8 °F 10.8 °F 51% 30.45 in 10.0 mi ENE 10.4 mph - N/A   Clear
2:55 AM 26.1 °F 15.0 °F 9.5 °F 50% 30.46 in 10.0 mi ENE 12.7 mph - N/A   Clear
3:15 AM 25.0 °F 13.1 °F 9.1 °F 51% 30.47 in 10.0 mi ENE 13.8 mph - N/A   Clear
3:35 AM 24.6 °F 13.2 °F 8.6 °F 51% 30.48 in 10.0 mi ENE 12.7 mph 18.4 mph N/A   Clear
3:55 AM 24.1 °F 13.7 °F 8.1 °F 51% 30.50 in 10.0 mi ENE 10.4 mph - N/A   Clear
4:15 AM 23.5 °F 11.8 °F 7.7 °F 51% 30.51 in 10.0 mi ENE 12.7 mph 18.4 mph N/A   Clear
4:35 AM 22.8 °F 10.4 °F 7.5 °F 52% 30.52 in 10.0 mi NE 13.8 mph 18.4 mph N/A   Clear
4:55 AM 22.5 °F 12.4 °F 7.7 °F 53% 30.52 in 10.0 mi NE 9.2 mph - N/A   Clear
5:15 AM 22.1 °F 12.0 °F 7.7 °F 54% 30.52 in 10.0 mi ENE 9.2 mph - N/A   Clear
5:35 AM 21.6 °F 10.6 °F 7.5 °F 55% 30.53 in 10.0 mi ENE 10.4 mph - N/A   Clear
5:55 AM 21.2 °F 10.1 °F 7.3 °F 55% 30.53 in 10.0 mi ENE 10.4 mph - N/A   Clear
6:15 AM 20.8 °F 11.2 °F 7.7 °F 57% 30.54 in 10.0 mi ENE 8.1 mph - N/A   Clear
6:35 AM 20.3 °F 12.5 °F 7.7 °F 58% 30.56 in 10.0 mi ENE 5.8 mph - N/A   Clear
6:55 AM 20.1 °F 10.3 °F 8.1 °F 60% 30.56 in 10.0 mi ENE 8.1 mph - N/A   Clear
7:15 AM 19.9 °F 12.1 °F 8.4 °F 61% 30.57 in 10.0 mi NE 5.8 mph - N/A   Clear
7:35 AM 19.2 °F 11.3 °F 8.6 °F 63% 30.58 in 10.0 mi NNE 5.8 mph - N/A   Clear
7:55 AM 18.7 °F 9.5 °F 8.1 °F 63% 30.59 in 10.0 mi NNE 6.9 mph - N/A   Clear
8:15 AM 18.5 °F 9.3 °F 8.2 °F 64% 30.60 in 10.0 mi NNE 6.9 mph - N/A   Clear
8:35 AM 18.5 °F 8.4 °F 7.9 °F 63% 30.61 in 10.0 mi NNE 8.1 mph - N/A   Clear
8:55 AM 19.9 °F 8.6 °F 8.2 °F 61% 30.62 in 10.0 mi NE 10.4 mph - N/A   Clear
9:15 AM 20.3 °F 11.5 °F 7.7 °F 58% 30.63 in 10.0 mi NE 6.9 mph - N/A   Clear
9:35 AM 21.0 °F 12.4 °F 8.1 °F 57% 30.64 in 10.0 mi ENE 6.9 mph - N/A   Clear
9:55 AM 21.2 °F 12.6 °F 7.7 °F 56% 30.64 in 10.0 mi ENE 6.9 mph - N/A   Clear
10:15 AM 22.3 °F 13.9 °F 8.1 °F 54% 30.65 in 10.0 mi ENE 6.9 mph - N/A   Clear
10:35 AM 22.6 °F 14.3 °F 8.2 °F 54% 30.65 in 10.0 mi East 6.9 mph - N/A   Clear
10:55 AM 23.9 °F 16.8 °F 8.8 °F 53% 30.65 in 10.0 mi ENE 5.8 mph - N/A   Clear
11:15 AM 23.9 °F 19.5 °F 8.1 °F 51% 30.64 in 10.0 mi East 3.5 mph - N/A   Clear
11:35 AM 25.0 °F 19.3 °F 8.6 °F 50% 30.63 in 10.0 mi NE 4.6 mph - N/A   Clear
11:55 AM 25.3 °F 21.1 °F 7.9 °F 48% 30.61 in 10.0 mi ENE 3.5 mph - N/A   Clear
12:15 PM 26.4 °F 20.9 °F 8.4 °F 47% 30.60 in 10.0 mi ESE 4.6 mph - N/A   Clear
12:35 PM 26.6 °F 22.6 °F 7.7 °F 45% 30.58 in 10.0 mi SE 3.5 mph - N/A   Clear
12:55 PM 26.2 °F - 7.7 °F 46% 30.56 in 10.0 mi Calm Calm - N/A   Clear
1:15 PM 27.9 °F 21.5 °F 8.8 °F 45% 30.54 in 10.0 mi East 5.8 mph - N/A   Clear
1:35 PM 28.2 °F 24.4 °F 8.2 °F 43% 30.52 in 10.0 mi East 3.5 mph - N/A   Clear
1:55 PM 29.7 °F 26.1 °F 8.8 °F 42% 30.51 in 10.0 mi NNE 3.5 mph - N/A   Clear
2:15 PM 31.6 °F 27.0 °F 9.0 °F 39% 30.51 in 10.0 mi ENE 4.6 mph - N/A   Clear
2:35 PM 32.0 °F - 8.8 °F 38% 30.50 in 10.0 mi Calm Calm - N/A   Clear
3:00 PM 32.7 °F 23.9 °F 9.0 °F 37% 30.49 in 10.0 mi East 11.5 mph - N/A   Clear
3:15 PM 32.4 °F 26.0 °F 8.8 °F 37% 30.49 in 10.0 mi ESE 6.9 mph - N/A   Clear
3:35 PM 32.7 °F 28.3 °F 8.8 °F 37% 30.49 in 10.0 mi East 4.6 mph - N/A   Clear
3:55 PM 33.1 °F 25.5 °F 8.4 °F 36% 30.48 in 10.0 mi ESE 9.2 mph - N/A   Clear
4:15 PM 33.8 °F 25.3 °F 8.4 °F 35% 30.47 in 10.0 mi ESE 11.5 mph - N/A   Clear
4:35 PM 33.8 °F 25.8 °F 8.2 °F 34% 30.47 in 10.0 mi ESE 10.4 mph - N/A   Clear
4:55 PM 34.0 °F 26.0 °F 8.2 °F 34% 30.47 in 10.0 mi ESE 10.4 mph 16.1 mph N/A   Clear
5:15 PM 33.1 °F 24.9 °F 7.7 °F 35% 30.46 in 10.0 mi East 10.4 mph - N/A   Clear
5:35 PM 32.5 °F 24.8 °F 7.5 °F 35% 30.46 in 10.0 mi East 9.2 mph - N/A   Clear
5:55 PM 32.0 °F 24.8 °F 7.3 °F 36% 30.46 in 10.0 mi East 8.1 mph - N/A   Clear
6:15 PM 30.0 °F 23.2 °F 7.2 °F 38% 30.46 in 10.0 mi East 6.9 mph - N/A   Clear
6:35 PM 27.7 °F 20.4 °F 7.7 °F 43% 30.46 in 10.0 mi East 6.9 mph - N/A   Clear
6:55 PM 26.1 °F 18.4 °F 7.9 °F 46% 30.46 in 10.0 mi East 6.9 mph - N/A   Clear
7:15 PM 25.5 °F 17.8 °F 8.2 °F 48% 30.46 in 10.0 mi ENE 6.9 mph - N/A   Clear
7:35 PM 24.6 °F 16.7 °F 8.2 °F 50% 30.47 in 10.0 mi ENE 6.9 mph - N/A   Clear
7:55 PM 23.5 °F 14.5 °F 8.1 °F 52% 30.47 in 10.0 mi ENE 8.1 mph - N/A   Clear
8:15 PM 23.4 °F 15.2 °F 7.7 °F 51% 30.47 in 10.0 mi ENE 6.9 mph - N/A   Clear
8:35 PM 21.9 °F 13.4 °F 7.7 °F 54% 30.47 in 10.0 mi ENE 6.9 mph - N/A   Clear
8:55 PM 22.1 °F 13.7 °F 7.7 °F 54% 30.47 in 10.0 mi ENE 6.9 mph - N/A   Clear
9:15 PM 21.9 °F 14.5 °F 7.7 °F 54% 30.47 in 10.0 mi NE 5.8 mph - N/A   Clear
9:35 PM 22.1 °F 13.7 °F 8.1 °F 55% 30.47 in 10.0 mi NE 6.9 mph - N/A   Clear
9:55 PM 22.6 °F 14.3 °F 8.1 °F 54% 30.46 in 10.0 mi NE 6.9 mph - N/A   Clear
10:15 PM 22.8 °F 15.5 °F 7.5 °F 52% 30.46 in 10.0 mi NE 5.8 mph - N/A   Clear
10:35 PM 22.1 °F 14.7 °F 7.7 °F 54% 30.46 in 10.0 mi ENE 5.8 mph - N/A   Clear
10:55 PM 21.6 °F 15.3 °F 7.5 °F 55% 30.46 in 10.0 mi ENE 4.6 mph - N/A   Clear
11:15 PM 21.2 °F 14.9 °F 7.7 °F 56% 30.45 in 10.0 mi NE 4.6 mph - N/A   Clear
11:35 PM 21.4 °F 15.1 °F 7.7 °F 56% 30.45 in 10.0 mi North 4.6 mph - N/A   Clear
11:55 PM 21.0 °F - 7.7 °F 56% 30.44 in 10.0 mi Calm Calm - N/A   Clear